LiveATC.Net - Listen to live air traffic control over the Internet!


ICAO: EPRZ  IATA: RZE   Airport: Rzeszow-Jasionka Airport
City: Jasionka
Country: Poland   Continent: Europe
EPRZ METAR Weather: EPRZ 250500Z 24004KT 0100 R27/0375N FG VV000 07/07 Q1024
EPRZ Flight Activity (FlightAware)
EPRZ Webcam: (Airport Webcams)
EPRZ Del/Twr/EPWW Radar
Feed Status: UP   Listeners: 1
Listen right in your browser - requires Flash (in browser, requires Flash)
Click here to listen with your own player (launches your MP3 player)
Click here to listen with Windows Media Player (Windows Media Player)
EPRZ Del/Twr/EPWW Radar Audio Archives
FacilityFrequency
EPWW Radar120.950
EPWW Radar134.175
Rzeszow Delivery121.800
Rzeszow Tower126.800


NOTICE

Unauthorized use prohibited. See LiveATC.net Terms of Service


Find LiveATC Audio Streams


Airport/ARTCC Code

Frequency
(e.g., 124.400, 128.75)
Site-wide search

Browse LiveATC Feeds
LiveATC Coverage Map
Top 50 LiveATC Feeds
Bad Weather Areas

LiveATC FAQ
Offer a LiveATC Feed
Contact LiveATC.net
Press Inquiries

LiveATC on iPhone
LiveATC on Android

Windows Phone
Windows 8/10

LiveATC Mobile
(Mobile browser)

ATC Audio Archives
Interesting Recordings

LiveATC Forums


Home Page
About LiveATC.net
Make a Donation
LiveATC Store

Terms of Use
Privacy Policy

Canadian Air Freqs

AIRMETs/SIGMETs

FAA Airport Status
Nat'l Airspace Status
Arrival Demand Charts


Server Software By:
Icecast.org
Liquidsoap